Location: Mesa Vista Observatory
(35.5777°N, 105.6987°W)
Time: 07:08:37
(UTC-06:00)

Explorer 11/Cluster Stage 4 - Visible Passes

Search period start: 26 September 2020 00:00
Search period end: 06 October 2020 00:00
Orbit: 467 x 1258 km, 28.8° (Epoch: 25 September)

Date Brightness Start Highest point End Pass type
(mag) Time Alt. Az. Time Alt. Az. Time Alt. Az.
26 Sep 7.9 04:07:54 47° SSE 04:07:54 47° SSE 04:14:28 10° ESE visible
26 Sep 7.9 05:50:02 18° WSW 05:55:41 48° S 06:03:33 10° ESE visible
27 Sep 8.1 03:57:45 41° SE 03:57:45 41° SE 04:03:20 10° ESE visible
27 Sep 7.9 05:39:54 22° WSW 05:44:37 46° S 05:52:23 10° ESE visible
28 Sep 8.5 03:47:40 33° SE 03:47:40 33° SE 03:52:11 10° ESE visible
28 Sep 7.9 05:29:48 26° WSW 05:33:32 43° SSW 05:41:10 10° SE visible
29 Sep 8.8 03:37:36 26° ESE 03:37:36 26° ESE 03:41:02 10° ESE visible
29 Sep 8.0 05:19:45 30° SW 05:22:28 40° SSW 05:29:55 10° SE visible
30 Sep 9.1 03:27:37 20° ESE 03:27:37 20° ESE 03:29:50 10° ESE visible
30 Sep 7.9 05:09:46 33° SW 05:11:25 37° SSW 05:18:37 10° SE visible
01 Oct 9.5 03:17:41 14° ESE 03:17:41 14° ESE 03:18:38 10° ESE visible
01 Oct 8.0 04:59:50 33° SSW 05:00:23 33° SSW 05:07:15 10° SE visible
02 Oct 8.2 04:49:57 29° S 04:49:57 29° S 04:55:50 10° SE visible
03 Oct 8.5 04:40:08 24° S 04:40:08 24° S 04:44:22 10° SE visible
03 Oct 9.2 06:25:14 10° SW 06:26:50 11° SSW 06:28:28 10° SSW visible
04 Oct 8.9 04:30:21 17° SSE 04:30:21 17° SSE 04:32:48 10° SSE visible
05 Oct 9.3 04:20:36 11° SSE 04:20:36 11° SSE 04:21:08 10° SSE visible
